Location: Madrid
(40.4000°N, 3.6830°W)
Time: 22:58:03
(UTC+02:00)

ISS - Pass Details

Date: 21 May 2019
Orbit: 408 x 418 km, 51.6° (Epoch: 26 May)

Event Time Altitude Azimuth Distance (km) Brightness Sun altitude
Rises 01:53:46 0° 308° (NW) 2,358 0.6 -29.4°
Reaches altitude 10° 01:56:49 10° 338° (NNW) 1,497 -0.1 -29.4°
Maximum altitude 01:58:26 13° 7° (N) 1,336 -0.4 -29.4°
Drops below altitude 10° 02:00:03 10° 36° (NE) 1,498 -0.4 -29.5°
Enters shadow 02:01:07 - 50° (NE) 1,747 -0.2 -29.5°
